User: anonymous   Login
Location: Allentsteig
(48.6833°N, 15.3167°E)
Time: 03:27:45
(UTC+00:00)
Language:

Cosmos 2034 Rocket - Orbit

View from above orbital plane
View from above orbital plane
View from above satellite
View from above satellite

Ground track
Ground track

The orbit data is extracted from the following two-line orbital elements,

1 20150U 89059B   20329.22104625 +.00000031 +00000-0 +16567-4 0  9990
2 20150 082.9420 242.2921 0029597 017.6948 134.3311 13.75639686572862
Epoch (UTC): 24 November 2020 05:18:18
Eccentricity: 0.0029597
inclination: 82.9420°
perigee height: 957 km
apogee height: 1001 km
right ascension of ascending node: 242.2921°
argument of perigee: 17.6948°
revolutions per day: 13.75639686
mean anomaly at epoch: 134.3311°
orbit number at epoch: 57286

The dashed part of the orbit path shows where the satellite is in the earth's shadow,  

DLR